Regional Weather Roundup
Issued by NWS Little Rock, AR

Home | Current Version | Previous Version | Graphics & Text | Print | Product List | Glossary On
Versions: 1 2 3 4 5 6 7 8 9 10 11 12 13 14 15 16 17 18 19 20 21 22 23 24 25 26 27 28 29 30 31 32
000
ASUS44 KLZK 281705
RWRLZK

WEATHER ROUNDUP FOR ARKANSAS
NATIONAL WEATHER SERVICE LITTLE ROCK AR
1200 PM CDT TUE MAR 28 2017

NOTE: "FAIR" INDICATES FEW OR NO CLOUDS BELOW 12,000 FEET WITH NO
SIGNIFICANT WEATHER AND/OR OBSTRUCTIONS TO VISIBILITY.

ARZ001-003-010-029-281800-
NORTHWEST ARKANSAS

CITY           SKY/WX    TMP DP  RH WIND       PRES   REMARKS
FAYETTEVILLE   MOSUNNY   63  54  72 VRB3      30.02S
FORT SMITH     MOSUNNY   66  53  63 NE13      29.99F
HARRISON       CLOUDY    58  52  80 SE7       30.05S
BENTONVILLE    MOSUNNY   61  48  63 SE3       30.04S
ROGERS         MOSUNNY   61  50  67 VRB6      30.04S
SILOAM SPGS    MOSUNNY   61  48  63 SE5       30.02F
HIGHFILL       MOSUNNY   61  51  70 SE6       30.02F
SPRINGDALE     PTSUNNY   61  52  72 SE6       30.04F
$$

ARZ004-005-016-281800-
NORTH CENTRAL ARKANSAS

CITY           SKY/WX    TMP DP  RH WIND       PRES   REMARKS
BATESVILLE     CLOUDY    63  54  72 E5        30.06F
FLIPPIN        CLOUDY    63  48  59 SE6       30.03S
MTN HOME       CLOUDY    62  52  69 VRB5      30.05S
$$

ARZ040-041-281800-
WEST CENTRAL ARKANSAS

CITY           SKY/WX    TMP DP  RH WIND       PRES   REMARKS
MENA           SUNNY     68  61  77 NE6       29.99F
MOUNT IDA      SUNNY     68  55  63 VRB5      29.98F
$$

ARZ009-017-025-026-028-281800-
NORTHEAST ARKANSAS

CITY           SKY/WX    TMP DP  RH WIND       PRES   REMARKS
CORNING        CLOUDY    61  54  77 NE8       30.08S
JONESBORO      MOSUNNY   64  55  72 E10       30.06S
NEWPORT          N/A    N/A N/A N/A MISG        N/A
WALNUT RIDGE   CLOUDY    61  52  72 NE9       30.07S
BLYTHEVILLE    MOSUNNY   64  55  72 E6        30.06F
NW BLYTHEVILLE PTSUNNY   63  54  72 NE9       30.06S
$$

ARZ022-023-033-042-044-281800-
CENTRAL ARKANSAS

CITY           SKY/WX    TMP DP  RH WIND       PRES   REMARKS
LITTLE ROCK    MOSUNNY   68  59  73 E6        30.02F
JACKSONVILLE   CLOUDY    66  58  76 NE9       30.02F
CONWAY           N/A     66  57  72 VRB5      30.01F
SEARCY         CLOUDY    66  58  75 NE9       30.05F
HOT SPRINGS    SUNNY     69  58  67 SE6       30.00F
RUSSELLVILLE   PTSUNNY   65  54  67 VRB6      30.02F
CLINTON        CLOUDY    64  55  72 E7        30.04S
$$

ARZ036-281800-
EAST ARKANSAS

CITY           SKY/WX    TMP DP  RH WIND       PRES   REMARKS
WEST MEMPHIS   SUNNY     69  59  70 NE8       30.01F
$$

ARZ050-053-066-070-073-281800-
SOUTHWEST ARKANSAS

CITY           SKY/WX    TMP DP  RH WIND       PRES   REMARKS
ARKADELPHIA    FAIR      71  60  68 VRB3      29.99F
CAMDEN         SUNNY     77  59  53 E3        29.98F
TEXARKANA      CLOUDY    68  60  75 SE7       29.97S
EL DORADO      CLOUDY    69  62  78 SE5       29.99S
DE QUEEN       MOSUNNY   71  60  68 SE9       29.94F
$$

ARZ056-057-069-281800-
SOUTHEAST ARKANSAS

CITY           SKY/WX    TMP DP  RH WIND       PRES   REMARKS
PINE BLUFF     SUNNY     70  59  68 NE7       30.01F
STUTTGART      MOSUNNY   70  54  56 NE7       30.03S
MONTICELLO     MOSUNNY   76  60  57 S6        29.99S

$$






USA.gov is the U.S. government's official web portal to all federal, state and local government web resources and services.